Humidity-temperature Sensor

Selected Measurement Type: Air Temperature

 
Air Temperature [°C]     6 entries per hour
Showing data from 11/29/2022 (05:00:00 Z) to 11/28/2022 (00:01:00 Z)
Previous Next [ Day | 3-Days | 7-Days ]
First Last
Prev [ Day | 3-Days | 7-Days ] Next
First Last

Start Time:     :
End Time:     :     
Time (in GMT) :00 :50 :40 :30 :20 :10
Previous Next [ Day | 3-Days | 7-Days ]
First Last
Prev [ Day | 3-Days | 7-Days ] Next
First Last


123 => good data
MM => data is determined as missing
-- => data not received/configured
Back to Top Back to Top
11/29/2022 05:00 to 4:10 25.13 24.82 24.93 24.78 24.82 24.80
11/29/2022 04:00 to 3:10 24.97 24.94 25.12 25.22 25.34 25.42
11/29/2022 03:00 to 2:10 25.55 25.49 25.57 25.54 25.34 25.33
11/29/2022 02:00 to 1:10 25.31 25.10 25.17 25.52 25.50 25.61
11/29/2022 01:00 to 0:10 25.52 25.60 25.56 25.68 25.51 25.50
11/29/2022 00:00 to 23:10 25.80 25.51 25.57 25.56 25.49 25.54
11/28/2022 23:00 to 22:10 25.79 25.44 25.76 25.60 25.34 25.65
11/28/2022 22:00 to 21:10 25.61 25.73 25.59 25.50 25.61 25.49
11/28/2022 21:00 to 20:10 25.42 25.40 25.32 25.28 25.28 25.18
11/28/2022 20:00 to 19:10 25.05 25.27 25.52 25.43 25.49 25.29
11/28/2022 19:00 to 18:10 25.30 25.42 25.47 25.62 25.47 25.32
11/28/2022 18:00 to 17:10 25.31 25.15 25.25 25.50 25.62 25.46
11/28/2022 17:00 to 16:10 25.41 25.38 25.18 25.09 25.28 25.06
11/28/2022 16:00 to 15:10 25.18 25.21 25.01 25.07 24.90 24.94
11/28/2022 15:00 to 14:10 24.83 25.18 25.12 24.93 24.85 24.83
11/28/2022 14:00 to 13:10 25.03 25.35 24.96 24.61 24.83 24.63
11/28/2022 13:00 to 12:10 24.59 24.90 25.39 24.89 25.17 25.23
11/28/2022 12:00 to 11:10 25.35 25.23 25.09 25.20 25.06 25.10
11/28/2022 11:00 to 10:10 25.18 25.16 25.24 25.35 25.17 25.04
11/28/2022 10:00 to 9:10 24.90 24.86 24.62 24.97 24.63 24.47
11/28/2022 09:00 to 8:10 24.35 24.13 24.33 24.82 24.93 25.07
11/28/2022 08:00 to 7:10 25.30 25.30 25.26 25.50 25.28 24.99
11/28/2022 07:00 to 6:10 24.90 24.90 24.78 24.74 24.59 24.73
11/28/2022 06:00 to 5:10 24.38 24.09 24.15 24.07 24.08 24.02
11/28/2022 05:00 to 4:10 24.40 24.76 24.69 24.62 24.55 24.49
11/28/2022 04:00 to 3:10 24.73 24.87 25.05 25.14 24.87 25.44
11/28/2022 03:00 to 2:10 25.47 25.26 25.27 25.23 25.06 24.98
11/28/2022 02:00 to 1:10 24.94 24.97 24.85 24.86 24.89 24.74
11/28/2022 01:00 to 0:10 24.78 25.07 24.82 25.02 24.97 25.22